This demonstration page uses our WeatherBlox Daily Observations layout. Learn more.

Left ArrowRight Arrow

39.51506, -84.39828

Hourly Observations for March 9, 2021

Temp ( °F °C ) Dew Point ( °F °C ) Humidity (%) Winds ( mph kmh ) Pressure ( in mb ) Visibility ( mi km ) Precip ( " mm )
12:15 am 00:15 Clear 38 3.4 33 0.8 83 83 N N/A 30.43 1030 10 16 N/A
12:35 am 00:35 Clear 37 2.9 34 1.1 88 88 N N/A 30.43 1030 10 16 N/A
12:55 am 00:55 Clear 36 2.3 33 0.4 87 87 N N/A 30.43 1030 10 16 N/A
1:15 am 01:15 Clear 36 2.2 33 0.3 87 87 N N/A 30.42 1030 10 16 N/A
1:35 am 01:35 Clear 36 2.1 33 0.4 89 89 N N/A 30.43 1030 10 16 N/A
1:55 am 01:55 Clear 35 1.6 33 0.4 92 92 N N/A 30.43 1031 10 16 N/A
2:15 am 02:15 Clear 34 1.3 32 -0.2 90 90 N N/A 30.43 1031 10 16 N/A
2:35 am 02:35 Clear 34 1.1 32 -0.2 91 91 N N/A 30.43 1031 10 16 N/A
2:55 am 02:55 Clear 34 0.9 32 -0.2 92 92 N N/A 30.43 1031 10 16 N/A
3:15 am 03:15 Clear 32 0.1 31 -0.6 95 95 N N/A 30.44 1031 10 16 N/A
3:35 am 03:35 Clear 33 0.3 31 -0.5 94 94 N N/A 30.42 1030 10 16 N/A
3:55 am 03:55 Clear 33 0.7 31 -0.3 93 93 N N/A 30.43 1031 10 16 N/A
4:15 am 04:15 Clear 32 0.2 31 -0.3 96 96 N N/A 30.44 1031 10 16 N/A
4:35 am 04:35 Clear 33 0.4 31 -0.5 94 94 N N/A 30.43 1031 10 16 N/A
4:55 am 04:55 Clear 32 0.2 31 -0.4 96 96 N N/A 30.45 1031 10 16 N/A
5:15 am 05:15 Clear 32 0.1 31 -0.5 96 96 N N/A 30.45 1031 10 16 N/A
5:35 am 05:35 Clear 32 -0.1 31 -0.7 96 96 N N/A 30.45 1031 10 16 N/A
5:55 am 05:55 Clear 31 -0.3 30 -0.9 96 96 N N/A 30.45 1031 10 16 N/A
6:15 am 06:15 Clear 31 -0.5 30 -0.9 97 97 N N/A 30.46 1031 10 16 N/A
6:35 am 06:35 Clear 31 -0.6 30 -0.9 98 98 N N/A 30.46 1031 10 16 N/A
6:55 am 06:55 Clear 31 -0.6 31 -0.8 99 99 N N/A 30.46 1031 10 16 N/A
7:15 am 07:15 Sunny 30 -0.9 30 -1.2 98 98 N N/A 30.47 1032 10 16 N/A
7:35 am 07:35 Sunny 32 undefined N/A N/A N N/A 30.47 1032 10 16 N/A
7:55 am 07:55 Sunny 32 -0.2 31 -0.6 97 97 N N/A 30.47 1032 10 16 N/A
8:15 am 08:15 Sunny 33 0.6 33 0.4 99 99 N N/A 30.47 1032 10 16 N/A
8:35 am 08:35 Sunny 40 4.2 36 2 86 86 N N/A 30.47 1032 10 16 N/A
8:55 am 08:55 Sunny 43 6.1 35 1.9 75 75 SSW 3 6 30.47 1032 10 16 N/A
9:15 am 09:15 Sunny 46 7.8 33 0.6 61 61 SSW 5 7 30.46 1032 10 16 N/A
9:35 am 09:35 Sunny 49 9.4 32 -0.1 52 52 SSW 7 11 30.45 1031 10 16 N/A
9:55 am 09:55 Sunny 51 10.5 31 -0.4 47 47 S 7 11 30.45 1031 10 16 N/A
10:15 am 10:15 Sunny 53 11.5 31 -0.3 44 44 SSW 7 11 30.45 1031 10 16 N/A
10:35 am 10:35 Sunny 56 13.1 33 0.6 43 43 SW 7 11 30.44 1031 10 16 N/A
10:55 am 10:55 Sunny 57 13.9 33 0.6 41 41 SSW 8 13 30.43 1030 10 16 N/A
11:15 am 11:15 Sunny 60 15.5 33 0.4 36 36 SSW 10 17 30.43 1030 10 16 N/A
11:35 am 11:35 Sunny 60 15.4 31 -0.3 34 34 SSW 13 20 30.42 1030 10 16 N/A
11:55 am 11:55 Sunny 62 16.5 32 -0.2 32 32 SSW 12 19 30.41 1030 10 16 N/A
12:15 pm 12:15 Sunny 62 16.9 31 -0.8 30 30 SW 9 15 30.40 1030 10 16 N/A
12:35 pm 12:35 Sunny 63 17.2 30 -1.2 29 29 SSW 12 19 30.40 1029 10 16 N/A
12:55 pm 12:55 Sunny 64 17.8 29 -1.9 26 26 SW 14 22 30.38 1029 10 16 N/A
1:15 pm 13:15 Sunny 65 18.3 26 -3.2 23 23 SW 13 20 30.37 1028 10 16 N/A
1:35 pm 13:35 Sunny 65 18.6 27 -2.9 23 23 SW 16 26 30.37 1028 10 16 N/A
1:55 pm 13:55 Sunny 65 18.3 26 -3.1 23 23 SW 21 33 30.35 1028 10 16 N/A
2:15 pm 14:15 Sunny 65 18.3 27 -2.7 24 24 WSW 15 24 30.34 1027 10 16 N/A
2:35 pm 14:35 Sunny 65 18.5 28 -2.4 24 24 SW 13 20 30.34 1027 10 16 N/A
2:55 pm 14:55 Sunny 65 18.4 28 -2.2 25 25 SSW 15 24 30.33 1027 10 16 N/A
3:15 pm 15:15 Sunny 65 18.6 28 -2.2 24 24 SSW 15 24 30.33 1027 10 16 N/A
3:35 pm 15:35 Sunny 67 19.5 28 -2 23 23 SSW 20 31 30.32 1027 10 16 N/A
3:55 pm 15:55 Sunny 65 18.4 28 -2.3 25 25 SSW 15 24 30.32 1027 10 16 N/A
4:15 pm 16:15 Sunny 66 18.8 28 -2.1 24 24 SSW 12 19 30.31 1026 10 16 N/A
4:35 pm 16:35 Sunny 64 17.7 29 -1.9 26 26 SSW 13 20 30.30 1026 10 16 N/A
4:55 pm 16:55 Sunny 63 17.2 29 -1.4 28 28 SSW 6 9 30.29 1026 10 16 N/A
5:15 pm 17:15 Sunny 64 18 29 -1.4 27 27 SSW 5 7 30.29 1026 10 16 N/A
5:35 pm 17:35 Sunny 64 17.9 30 -1.3 27 27 SW 5 7 30.28 1025 10 16 N/A
5:55 pm 17:55 Sunny 64 17.9 28 -2.4 25 25 SSW 13 20 30.28 1025 10 16 N/A
6:15 pm 18:15 Sunny 62 16.8 28 -2.5 27 27 SSW 12 19 30.28 1025 10 16 N/A
6:35 pm 18:35 Sunny 60 15.8 28 -2.3 29 29 SSW 10 17 30.28 1026 10 16 N/A
6:55 pm 18:55 Clear 57 13.9 28 -2.2 33 33 SSW 7 11 30.29 1026 10 16 N/A
7:15 pm 19:15 Clear 53 11.4 29 -1.7 40 40 SW 5 7 30.31 1026 10 16 N/A
7:35 pm 19:35 Clear 52 11 30 -0.9 44 44 SW 3 6 30.31 1026 10 16 N/A
7:55 pm 19:55 Clear 48 9 31 -0.3 52 52 N N/A 30.31 1026 10 16 N/A
8:15 pm 20:15 Clear 45 7.3 33 0.4 62 62 N N/A 30.32 1027 10 16 N/A
8:35 pm 20:35 Clear 45 7.2 32 undefined 61 61 N N/A 30.32 1027 10 16 N/A
8:55 pm 20:55 Clear 44 6.8 32 undefined 62 62 N N/A 30.32 1027 10 16 N/A
9:15 pm 21:15 Clear 43 6 34 1.1 71 71 N N/A 30.32 1027 10 16 N/A
9:35 pm 21:35 Clear 42 5.8 35 1.9 76 76 N N/A 30.32 1027 10 16 N/A
9:55 pm 21:55 Clear 41 4.8 35 1.5 79 79 N N/A 30.32 1027 10 16 N/A
10:15 pm 22:15 Clear 39 3.7 33 0.5 80 80 N N/A 30.33 1027 10 16 N/A
10:35 pm 22:35 Clear 38 3.5 33 0.6 82 82 N N/A 30.34 1027 10 16 N/A
10:55 pm 22:55 Clear 38 3.6 32 0.2 79 79 N N/A 30.33 1027 10 16 N/A
11:15 pm 23:15 Clear 38 3.2 33 0.5 83 83 N N/A 30.33 1027 10 16 N/A
11:35 pm 23:35 Clear 38 3.1 32 -0.2 79 79 N N/A 30.33 1027 10 16 N/A
11:55 pm 23:55 Clear 37 2.9 32 undefined 81 81 N N/A 30.33 1027 10 16 N/A

Powered by AerisWeather